Weather History for Olathe New Century, KS

Change the Weather History Date:

Monday, January 9, 2012

  Actual Average Record
Temperature  
Mean Temperature 36 °F -  
Max Temperature 51 °F 36 °F 59 °F (2002)
Min Temperature 21 °F 19 °F 0 °F (1999)
Degree Days  
Heating Degree Days 29    
Moisture  
Dew Point 22 °F    
Average Humidity 64    
Maximum Humidity 88    
Minimum Humidity 35    
Precipitation  
Precipitation 0.00 in - - ()
Sea Level Pressure  
Sea Level Pressure 30.23 in    
Wind  
Wind Speed 2 mph (SW)    
Max Wind Speed 8 mph    
Max Gust Speed -    
Visibility 9 miles    
Events      
Averages and records for this station are not official NWS values.
T = Trace of Precipitation, MM = Missing Value Source: NWS Daily Summary

Daily Weather History Graph

Daily Weather History Graph

Search for Another Location

Airport:

Trip Planner

Search our weather history database for the weather conditions in past years. The results will help you decide how hot, cold, wet, or windy it might be!

Date:

Astronomy

Jan. 09, 2012 Rise Set
Actual Time 7:38 AM CST 5:15 PM CST
Civil Twilight 7:08 AM CST 5:44 PM CST
Nautical Twilight 6:35 AM CST 6:17 PM CST
Astronomical Twilight 6:03 AM CST 6:50 PM CST
Moon 6:01 PM CST (1/9) 7:39 AM CST (1/9)
Length of Visible Light 10h 36m
Length of Day
9h 37m
Full, 100% of the Moon is Illuminated
Jan 9
Full
Jan 16
Last Quarter
Jan 23
New
Jan 30
First Quarter
Feb 7
Full

Hourly Weather History & Observations

Time (CST) Temp. Windchill Dew Point Humidity Pressure Visibility Wind Dir Wind Speed Gust Speed Precip Events Conditions
12:53 AM 27.0 °F - 21.0 °F 78% 30.31 in 10.0 mi Calm Calm - N/A   Clear
1:53 AM 27.0 °F - 19.9 °F 75% 30.31 in 10.0 mi Calm Calm - N/A   Clear
2:53 AM 26.1 °F - 19.9 °F 78% 30.29 in 10.0 mi Calm Calm - N/A   Clear
3:53 AM 24.1 °F - 19.0 °F 81% 30.27 in 10.0 mi Calm Calm - N/A   Clear
4:53 AM 23.0 °F - 18.0 °F 81% 30.29 in 9.0 mi Calm Calm - N/A   Clear
5:53 AM 25.0 °F 20.7 °F 19.9 °F 81% 30.28 in 8.0 mi WNW 3.5 mph - 0.00 in   Clear
6:53 AM 23.0 °F - 19.9 °F 88% 30.30 in 7.0 mi Calm Calm - N/A   Clear
7:53 AM 21.9 °F - 18.0 °F 85% 30.31 in 6.0 mi Calm Calm - N/A   Clear
8:53 AM 28.9 °F 25.2 °F 24.1 °F 82% 30.30 in 7.0 mi West 3.5 mph - N/A   Clear
10:53 AM 39.0 °F 35.7 °F 27.0 °F 62% 30.28 in 10.0 mi WSW 4.6 mph - 0.00 in   Clear
11:53 AM 45.0 °F 40.6 °F 26.1 °F 48% 30.23 in 10.0 mi SW 8.1 mph - N/A   Clear
12:53 PM 46.9 °F - 25.0 °F 42% 30.20 in 10.0 mi West 6.9 mph - N/A   Clear
1:53 PM 48.9 °F - 25.0 °F 39% 30.17 in 10.0 mi WSW 5.8 mph - N/A   Clear
2:53 PM 51.1 °F - 24.1 °F 35% 30.17 in 10.0 mi SW 6.9 mph - N/A   Clear
3:53 PM 51.1 °F - 24.1 °F 35% 30.18 in 10.0 mi SW 8.1 mph - N/A   Clear
4:53 PM 46.9 °F - 24.1 °F 41% 30.19 in 10.0 mi SSW 5.8 mph - N/A   Clear
5:53 PM 42.1 °F 39.2 °F 23.0 °F 47% 30.20 in 10.0 mi SW 4.6 mph - N/A   Clear
6:53 PM 39.0 °F 35.7 °F 23.0 °F 53% 30.19 in 10.0 mi SW 4.6 mph - N/A   Clear
7:53 PM 37.0 °F 34.5 °F 21.9 °F 54% 30.18 in 10.0 mi SW 3.5 mph - N/A   Clear
8:53 PM 33.1 °F - 21.0 °F 61% 30.16 in 10.0 mi Calm Calm - N/A   Clear
9:53 PM 28.0 °F 21.7 °F 19.9 °F 72% 30.14 in 10.0 mi SSE 5.8 mph - N/A   Clear
10:53 PM 27.0 °F 23.0 °F 19.9 °F 75% 30.12 in 10.0 mi South 3.5 mph - N/A   Clear
11:53 PM 28.9 °F 22.8 °F 21.0 °F 72% 30.12 in 10.0 mi South 5.8 mph - N/A   Clear